WA5KWK Weather Reports


Display with metric or nautical units.
time (UTC)temp
F
wind
direction
speed
MPH
gust
MPH
rain 1hr
in
rain 24hr
in
rain mn
in
humidity
%
barometer
mb
20260903235005 72 198 3.0 7.0 0.00 0.00 0.00 44 1012.7
20260903234505 72 243 6.0 9.0 0.00 0.00 0.00 44 1012.6
20260903234005 72 239 3.0 7.0 0.00 0.00 0.00 43 1012.7
20260903233505 72 306 2.0 7.0 0.00 0.00 0.00 44 1012.9
20260903233005 71 205 4.0 6.0 0.00 0.00 0.00 45 1013.1
20260903232505 71 200 3.0 10.0 0.00 0.00 0.00 46 1013.1
20260903232005 71 265 1.0 6.0 0.00 0.00 0.00 46 1013.2
20260903231505 71 206 5.0 10.0 0.00 0.00 0.00 46 1013.3
20260903231004 71 193 3.0 12.0 0.00 0.00 0.00 47 1013.3
20260903230505 71 264 3.0 9.0 0.00 0.00 0.00 47 1013.3
20260903230004 71 277 2.0 6.0 0.00 0.00 0.00 47 1013.4
20260903225504 72 20 2.0 7.0 0.00 0.00 0.00 47 1013.6
20260903225006 72 258 5.0 12.0 0.00 0.00 0.00 48 1013.6
20260903224505 71 290 3.0 9.0 0.00 0.00 0.00 49 1013.6
20260903223005 71 239 3.0 12.0 0.00 0.00 0.00 51 1013.8
20260903222504 71 228 3.0 8.0 0.00 0.00 0.00 53 1014.0
20260903222005 70 220 5.0 10.0 0.00 0.00 0.00 55 1014.0
20260903221505 69 205 6.0 10.0 0.00 0.00 0.00 55 1014.1
20260903221005 70 179 5.0 10.0 0.00 0.00 0.00 56 1013.9
20260903220505 69 225 5.0 12.0 0.00 0.00 0.00 55 1014.1
20260903220005 70 68 5.0 12.0 0.00 0.00 0.00 55 1014.1
20260903215505 70 290 4.0 8.0 0.00 0.00 0.00 56 1014.0
20260903215005 69 294 3.0 9.0 0.00 0.00 0.00 55 1013.9
20260903214504 70 302 3.0 12.0 0.00 0.00 0.00 55 1014.0
20260903214005 70 326 5.0 9.0 0.00 0.00 0.00 54 1014.0
20260903213505 70 275 6.0 10.0 0.00 0.00 0.00 55 1014.0
20260903213005 70 263 5.0 10.0 0.00 0.00 0.00 55 1014.1
20260903212005 70 256 4.0 9.0 0.00 0.00 0.00 55 1014.0
20260903211505 71 261 4.0 9.0 0.00 0.00 0.00 54 1014.0
20260903211005 70 314 5.0 12.0 0.00 0.00 0.00 54 1014.1
20260903210504 70 269 5.0 10.0 0.00 0.00 0.00 55 1014.1
20260903210005 70 255 6.0 12.0 0.00 0.00 0.00 54 1014.2
20260903205505 70 237 4.0 10.0 0.00 0.00 0.00 55 1014.2
20260903205005 69 212 2.0 9.0 0.00 0.00 0.00 56 1014.2
20260903204505 70 268 5.0 9.0 0.00 0.00 0.00 55 1014.2
20260903204005 70 198 6.0 13.0 0.00 0.00 0.00 55 1014.1
20260903203504 71 232 6.0 13.0 0.00 0.00 0.00 55 1014.1
20260903203006 71 212 3.0 10.0 0.00 0.00 0.00 54 1014.1
20260903202505 71 257 4.0 8.0 0.00 0.00 0.00 54 1014.1
20260903202005 70 196 4.0 9.0 0.00 0.00 0.00 54 1014.2
20260903201505 70 182 6.0 14.0 0.00 0.00 0.00 55 1014.2
20260903201005 70 201 3.0 14.0 0.00 0.00 0.00 55 1014.3
20260903200505 70 263 2.0 8.0 0.00 0.00 0.00 54 1014.3
20260903200005 70 181 5.0 14.0 0.00 0.00 0.00 55 1014.4
20260903195505 70 188 4.0 13.0 0.00 0.00 0.00 55 1014.3
20260903195004 70 272 6.0 12.0 0.00 0.00 0.00 54 1014.3
20260903194505 71 222 5.0 10.0 0.00 0.00 0.00 53 1014.5
20260903193505 71 207 4.0 9.0 0.00 0.00 0.00 51 1014.5
20260903193005 71 201 3.0 9.0 0.00 0.00 0.00 52 1014.5
20260903192505 70 171 5.0 9.0 0.00 0.00 0.00 52 1014.5
20260903192005 69 203 8.0 15.0 0.00 0.00 0.00 52 1014.5
20260903191505 69 190 7.0 13.0 0.00 0.00 0.00 53 1014.6
20260903191005 69 221 5.0 13.0 0.00 0.00 0.00 54 1014.4
20260903190505 69 217 7.0 13.0 0.00 0.00 0.00 54 1014.7
20260903185504 69 173 6.0 16.0 0.00 0.00 0.00 55 1014.8
20260903185005 68 197 7.0 13.0 0.00 0.00 0.00 54 1014.8
20260903184504 68 187 6.0 14.0 0.00 0.00 0.00 55 1015.0
20260903184005 69 220 8.0 14.0 0.00 0.00 0.00 55 1014.9
20260903183506 69 187 7.0 14.0 0.00 0.00 0.00 53 1014.8
20260903183004 70 211 8.0 14.0 0.00 0.00 0.00 52 1014.9
20260903182504 70 227 9.0 15.0 0.00 0.00 0.00 53 1015.0
20260903182004 70 203 7.0 16.0 0.00 0.00 0.00 52 1014.9
20260903181004 70 185 6.0 12.0 0.00 0.00 0.00 51 1015.0
20260903180005 69 170 7.0 16.0 0.00 0.00 0.00 55 1015.1
20260903175505 69 173 8.0 18.0 0.00 0.00 0.00 55 1015.1
20260903175004 69 211 9.0 13.0 0.00 0.00 0.00 55 1015.1
20260903174504 68 189 7.0 14.0 0.00 0.00 0.00 55 1015.1
20260903174004 68 187 7.0 12.0 0.00 0.00 0.00 56 1015.1
20260903173504 68 230 9.0 15.0 0.00 0.00 0.00 55 1015.2
20260903173005 68 184 6.0 9.0 0.00 0.00 0.00 56 1015.2
20260903172504 68 177 9.0 14.0 0.00 0.00 0.00 56 1015.2
20260903172004 68 194 6.0 12.0 0.00 0.00 0.00 55 1015.3
20260903171504 69 176 5.0 10.0 0.00 0.00 0.00 55 1015.3
20260903171004 68 136 4.0 8.0 0.00 0.00 0.00 56 1015.2
20260903170504 68 210 5.0 9.0 0.00 0.00 0.00 55 1015.2
20260903170005 67 141 5.0 12.0 0.00 0.00 0.00 55 1015.2
20260903165504 67 160 6.0 12.0 0.00 0.00 0.00 54 1015.3
20260903165004 67 152 5.0 12.0 0.00 0.00 0.00 55 1015.4
20260903164505 67 155 4.0 8.0 0.00 0.00 0.00 55 1015.5
20260903164004 66 176 5.0 9.0 0.00 0.00 0.00 56 1015.3
20260903163005 65 213 5.0 7.0 0.00 0.00 0.00 57 1015.4
20260903162505 64 217 2.0 3.0 0.00 0.00 0.00 59 1015.3
20260903161504 63 217 2.0 3.0 0.00 0.00 0.00 61 1015.6
20260903161004 62 229 2.0 3.0 0.00 0.00 0.00 62 1015.5
20260903160504 62 229 1.0 3.0 0.00 0.00 0.00 62 1015.5
20260903160005 61 229 2.0 3.0 0.00 0.00 0.00 63 1015.6
20260903155504 61 286 1.0 3.0 0.00 0.00 0.00 64 1015.7
20260903155004 60 289 0.0 0.0 0.00 0.00 0.00 65 1015.8
20260903154504 60 289 0.0 0.0 0.00 0.00 0.00 65 1015.7
20260903154004 60 289 0.0 0.0 0.00 0.00 0.00 64 1015.7
20260903153505 59 289 0.0 0.0 0.00 0.00 0.00 63 1015.8
20260903153005 59 289 0.0 0.0 0.00 0.00 0.00 65 1015.7
20260903152505 59 289 0.0 0.0 0.00 0.00 0.00 66 1015.7
20260903152005 59 289 0.0 0.0 0.00 0.00 0.00 66 1015.7
20260903151505 58 289 0.0 0.0 0.00 0.00 0.00 67 1015.7
20260903151005 58 289 0.0 0.0 0.00 0.00 0.00 68 1015.6
20260903150504 58 289 0.0 1.0 0.00 0.00 0.00 70 1015.7
20260903150004 57 289 0.0 0.0 0.00 0.00 0.00 70 1015.7
20260903145005 56 289 0.0 0.0 0.00 0.00 0.00 73 1015.7
20260903144504 56 289 0.0 0.0 0.00 0.00 0.00 73 1015.6
20260903144005 55 289 0.0 0.0 0.00 0.00 0.00 75 1015.5
20260903143505 55 289 0.0 0.0 0.00 0.00 0.00 75 1015.4
20260903143004 55 289 0.0 0.0 0.00 0.00 0.00 76 1015.3
20260903142004 54 289 0.0 0.0 0.00 0.00 0.00 76 1015.3
20260903141504 54 289 0.0 0.0 0.00 0.00 0.00 76 1015.2
20260903141005 54 289 0.0 0.0 0.00 0.00 0.00 75 1015.1
20260903140504 54 289 0.0 0.0 0.00 0.00 0.00 75 1015.1
20260903135504 54 289 0.0 0.0 0.00 0.00 0.00 76 1015.1
20260903135005 54 289 0.0 0.0 0.00 0.00 0.00 76 1014.9
20260903134504 54 289 0.0 0.0 0.00 0.00 0.00 78 1015.0
20260903134005 54 289 0.0 0.0 0.00 0.00 0.00 79 1015.0
20260903133004 54 289 0.0 0.0 0.00 0.00 0.00 79 1015.0
20260903132504 54 289 0.0 0.0 0.00 0.00 0.00 79 1015.1
20260903131504 54 289 0.0 0.0 0.00 0.00 0.00 80 1015.1
20260903131004 54 289 0.0 0.0 0.00 0.00 0.00 80 1015.1
20260903130504 54 289 0.0 0.0 0.00 0.00 0.00 80 1015.2
20260903130005 54 289 0.0 0.0 0.00 0.00 0.00 80 1015.0
20260903125505 54 289 0.0 0.0 0.00 0.00 0.00 80 1015.1
20260903124504 53 289 0.0 0.0 0.00 0.00 0.00 81 1015.2
20260903124005 53 289 0.0 0.0 0.00 0.00 0.00 81 1015.2
20260903123504 53 289 0.0 0.0 0.00 0.00 0.00 81 1015.2
20260903123005 53 289 0.0 0.0 0.00 0.00 0.00 82 1015.2
20260903122505 53 289 0.0 0.0 0.00 0.00 0.00 82 1015.1
20260903121505 54 289 0.0 0.0 0.00 0.00 0.00 81 1015.3
20260903121005 54 289 0.0 1.0 0.00 0.00 0.00 81 1015.4
20260903120504 54 289 0.0 1.0 0.00 0.00 0.00 81 1015.4
20260903120004 54 289 0.0 1.0 0.00 0.00 0.00 81 1015.5
20260903115505 54 289 0.0 0.0 0.00 0.00 0.00 81 1015.6
20260903115004 54 289 0.0 1.0 0.00 0.00 0.00 82 1015.6
20260903113505 54 289 0.0 0.0 0.00 0.00 0.00 82 1015.6
20260903113004 54 289 0.0 0.0 0.00 0.00 0.00 82 1015.5
20260903112504 54 289 0.0 0.0 0.00 0.00 0.00 82 1015.7
20260903112005 54 289 0.0 1.0 0.00 0.00 0.00 83 1015.7
20260903111504 53 289 0.0 1.0 0.00 0.00 0.00 83 1015.7
20260903110504 53 289 0.0 0.0 0.00 0.00 0.00 82 1015.8
20260903105504 53 289 0.0 0.0 0.00 0.00 0.00 80 1015.8
20260903105004 53 289 0.0 0.0 0.00 0.00 0.00 80 1015.8
20260903104504 53 289 0.0 0.0 0.00 0.00 0.00 81 1015.9
20260903104005 53 289 0.0 0.0 0.00 0.00 0.00 82 1015.9
20260903103504 53 289 0.0 0.0 0.00 0.00 0.00 83 1015.9
20260903102005 53 289 0.0 0.0 0.00 0.00 0.00 83 1016.0
20260903101504 53 289 0.0 0.0 0.00 0.00 0.00 83 1016.0
20260903100504 53 289 0.0 0.0 0.00 0.00 0.00 83 1016.2
20260903100004 53 289 0.0 0.0 0.00 0.00 0.00 83 1016.0
20260903095004 53 289 0.0 0.0 0.00 0.00 0.00 83 1016.0
20260903094504 53 289 0.0 0.0 0.00 0.00 0.00 83 1016.0
20260903094006 53 289 0.0 1.0 0.00 0.00 0.00 84 1016.1
20260903093504 53 289 0.0 1.0 0.00 0.00 0.00 84 1016.1
20260903093005 52 289 1.0 2.0 0.00 0.00 0.00 83 1016.1
20260903092504 52 289 1.0 2.0 0.00 0.00 0.00 83 1016.2
20260903092004 52 289 1.0 2.0 0.00 0.00 0.00 83 1016.2
20260903091504 52 289 1.0 2.0 0.00 0.00 0.00 83 1016.3
20260903091004 52 289 1.0 2.0 0.00 0.00 0.00 83 1016.3
20260903090504 52 289 1.0 2.0 0.00 0.00 0.00 83 1016.3
20260903085504 52 289 2.0 3.0 0.00 0.00 0.00 82 1016.4
20260903085004 52 289 0.0 2.0 0.00 0.00 0.00 81 1016.4
20260903084504 53 289 0.0 0.0 0.00 0.00 0.00 81 1016.4
20260903084005 53 289 0.0 0.0 0.00 0.00 0.00 81 1016.4
20260903083504 53 289 0.0 0.0 0.00 0.00 0.00 81 1016.5
20260903082504 53 289 0.0 0.0 0.00 0.00 0.00 81 1016.5
20260903082004 53 289 0.0 0.0 0.00 0.00 0.00 81 1016.6
20260903081504 53 289 0.0 0.0 0.00 0.00 0.00 81 1016.6
20260903080004 53 289 0.0 2.0 0.00 0.00 0.00 81 1016.5
20260903075504 53 289 1.0 2.0 0.00 0.00 0.00 81 1016.5
20260903075004 53 289 0.0 2.0 0.00 0.00 0.00 81 1016.4
20260903074504 53 289 1.0 2.0 0.00 0.00 0.00 81 1016.4
20260903074004 53 289 1.0 2.0 0.00 0.00 0.00 82 1016.4
20260903073005 53 289 2.0 3.0 0.00 0.00 0.00 81 1016.4
20260903072504 53 289 1.0 3.0 0.00 0.00 0.00 81 1016.4
20260903072004 53 289 1.0 3.0 0.00 0.00 0.00 80 1016.4
20260903071504 54 289 1.0 3.0 0.00 0.00 0.00 80 1016.4
20260903071005 54 289 1.0 2.0 0.00 0.00 0.00 80 1016.3
20260903070504 54 289 0.0 1.0 0.00 0.00 0.00 80 1016.4
20260903070004 54 289 0.0 0.0 0.00 0.00 0.00 80 1016.3
20260903065503 54 289 0.0 0.0 0.00 0.00 0.00 80 1016.4
20260903065005 54 289 0.0 0.0 0.00 0.00 0.00 80 1016.5
20260903064504 55 289 0.0 0.0 0.00 0.00 0.00 80 1016.5
20260903064005 55 289 0.0 0.0 0.00 0.00 0.00 80 1016.5
20260903063504 55 289 0.0 0.0 0.00 0.00 0.00 79 1016.6
20260903062503 56 289 1.0 1.0 0.00 0.00 0.00 80 1016.5
20260903062004 56 289 0.0 0.0 0.00 0.00 0.00 79 1016.6
20260903061504 56 289 0.0 0.0 0.00 0.00 0.00 79 1016.6
20260903061005 56 289 0.0 0.0 0.00 0.00 0.00 78 1016.6
20260903060504 57 289 0.0 0.0 0.00 0.00 0.00 77 1016.8
20260903060004 57 289 0.0 2.0 0.00 0.00 0.00 76 1016.8
20260903055504 57 289 1.0 2.0 0.00 0.00 0.00 77 1016.6
20260903055003 58 289 1.0 2.0 0.00 0.00 0.00 76 1016.7
20260903054503 58 289 1.0 2.0 0.00 0.00 0.00 76 1016.9
20260903054004 58 289 1.0 3.0 0.00 0.00 0.00 75 1016.9
20260903053505 59 289 0.0 0.0 0.00 0.00 0.00 74 1017.0
20260903052504 59 289 0.0 2.0 0.00 0.00 0.00 73 1017.0
20260903052004 59 289 1.0 3.0 0.00 0.00 0.00 73 1017.0
20260903051504 59 289 0.0 0.0 0.00 0.00 0.00 72 1017.0
20260903051004 59 289 0.0 0.0 0.00 0.00 0.00 71 1017.0
20260903050504 60 289 0.0 0.0 0.00 0.00 0.00 71 1017.0
20260903050004 60 289 0.0 0.0 0.00 0.00 0.00 71 1016.9
20260903045504 60 289 0.0 0.0 0.00 0.00 0.00 71 1017.0
20260903045004 60 289 0.0 0.0 0.00 0.00 0.00 71 1016.9
20260903044504 60 289 0.0 0.0 0.00 0.00 0.00 70 1016.9
20260903043504 60 289 0.0 0.0 0.00 0.00 0.00 70 1016.9
20260903043004 60 289 0.0 0.0 0.00 0.00 0.00 70 1016.9
20260903042504 60 289 0.0 0.0 0.00 0.00 0.00 70 1016.9
20260903042005 60 289 0.0 0.0 0.00 0.00 0.00 69 1017.0
20260903041004 61 289 0.0 0.0 0.00 0.00 0.00 69 1016.9
20260903040503 61 289 0.0 0.0 0.00 0.00 0.00 68 1016.8
20260903040004 61 289 0.0 0.0 0.00 0.00 0.00 68 1016.8
20260903035503 61 289 0.0 0.0 0.00 0.00 0.00 68 1016.8
20260903035004 61 289 0.0 1.0 0.00 0.00 0.00 67 1016.6
20260903034504 62 289 0.0 0.0 0.00 0.00 0.00 67 1016.6
20260903034004 62 289 0.0 1.0 0.00 0.00 0.00 66 1016.6
20260903033504 62 289 1.0 2.0 0.00 0.00 0.00 66 1016.7
20260903033004 62 289 1.0 2.0 0.00 0.00 0.00 66 1016.5
20260903032503 63 289 2.0 3.0 0.00 0.00 0.00 66 1016.5
20260903031504 63 277 1.0 3.0 0.00 0.00 0.00 65 1016.5
20260903030504 63 277 1.0 3.0 0.00 0.00 0.00 64 1016.4
20260903030004 64 277 1.0 3.0 0.00 0.00 0.00 63 1016.5
20260903025503 64 271 1.0 3.0 0.00 0.00 0.00 63 1016.4
20260903025003 64 271 1.0 3.0 0.00 0.00 0.00 62 1016.3
20260903024504 64 266 1.0 2.0 0.00 0.00 0.00 62 1016.4
20260903024004 64 266 1.0 3.0 0.00 0.00 0.00 61 1016.4
20260903023504 65 266 0.0 0.0 0.00 0.00 0.00 61 1016.4
20260903023003 65 266 1.0 2.0 0.00 0.00 0.00 61 1016.5
20260903022504 65 266 2.0 3.0 0.00 0.00 0.00 60 1016.4
20260903022004 65 264 2.0 6.0 0.00 0.00 0.00 60 1016.5
20260903021504 66 254 2.0 3.0 0.00 0.00 0.00 59 1016.4
20260903020503 67 252 2.0 3.0 0.00 0.00 0.00 57 1016.5
20260903020004 68 268 1.0 6.0 0.00 0.00 0.00 56 1016.6
20260903015004 68 319 2.0 5.0 0.00 0.00 0.00 56 1016.6
20260903014503 68 3 2.0 7.0 0.00 0.00 0.00 56 1016.6
20260903014004 68 266 3.0 6.0 0.00 0.00 0.00 56 1016.5
20260903013503 68 293 2.0 6.0 0.00 0.00 0.00 56 1016.6
20260903013004 68 271 3.0 6.0 0.00 0.00 0.00 56 1016.6
20260903012504 68 259 3.0 7.0 0.00 0.00 0.00 57 1016.6
20260903012003 69 261 3.0 9.0 0.00 0.00 0.00 56 1016.6
20260903011504 69 257 3.0 8.0 0.00 0.00 0.00 55 1016.7
20260903011005 69 279 2.0 8.0 0.00 0.00 0.00 55 1016.7
20260903010505 70 323 3.0 8.0 0.00 0.00 0.00 53 1016.6
20260903010005 70 250 1.0 3.0 0.00 0.00 0.00 53 1016.7
20260903005005 70 274 3.0 8.0 0.00 0.00 0.00 52 1016.7
20260903004504 70 206 6.0 12.0 0.00 0.00 0.00 51 1016.6
20260903004005 70 258 3.0 12.0 0.00 0.00 0.00 51 1016.8
20260903003505 70 212 5.0 9.0 0.00 0.00 0.00 51 1016.7
20260903002505 71 299 3.0 7.0 0.00 0.00 0.00 51 1016.6
20260903002005 71 168 4.0 8.0 0.00 0.00 0.00 50 1016.7
20260903001504 71 189 4.0 12.0 0.00 0.00 0.00 50 1016.7
20260903001005 71 176 3.0 10.0 0.00 0.00 0.00 49 1016.7
20260903000505 71 242 3.0 8.0 0.00 0.00 0.00 49 1016.7
20260902235505 71 238 4.0 10.0 0.00 0.00 0.00 48 1016.7